KD5KNZ-13 Weather Reports


Display with metric or nautical units.
time (UTC)temp
F
wind
direction
speed
MPH
gust
MPH
rain 1hr
in
rain 24hr
in
rain mn
in
humidity
%
barometer
mb
20260504081548 51 0 0.0 0.0 0.00 0.01 0.00 94 1017.3
20260504044543 55 0 0.0 0.0 0.00 0.01 0.01 91 1018.5
20260504043041 56 0 0.0 0.0 0.00 0.01 0.01 91 1018.5
20260504041536 56 0 0.0 0.0 0.00 0.01 0.01 91 1018.6
20260504040038 56 0 0.0 0.0 0.00 0.01 0.01 91 1018.5
20260504034551 56 0 0.0 0.0 0.00 0.01 0.01 90 1018.6
20260504033044 57 0 0.0 0.0 0.00 0.01 0.01 90 1018.5
20260504031545 57 0 0.0 0.0 0.00 0.01 0.01 90 1018.6
20260504030043 57 0 0.0 0.0 0.00 0.01 0.01 89 1018.5
20260504024545 58 0 0.0 0.0 0.00 0.02 0.01 88 1018.4
20260504023050 59 0 0.0 0.0 0.00 0.02 0.01 87 1018.3
20260504021544 59 0 0.0 0.0 0.00 0.02 0.01 85 1018.2
20260504020042 60 0 0.0 0.0 0.00 0.02 0.01 83 1018.0
20260504014553 61 0 0.0 0.0 0.00 0.02 0.01 81 1017.9
20260504013038 62 0 0.0 0.0 0.00 0.02 0.01 79 1017.8
20260504011542 63 0 0.0 0.0 0.00 0.02 0.01 76 1017.6
20260504010038 64 0 0.0 0.0 0.00 0.02 0.01 74 1017.4
20260504004546 65 0 0.0 0.0 0.00 0.02 0.01 71 1017.5
20260504003050 67 0 0.0 0.0 0.00 0.02 0.01 71 1017.3
20260504001542 68 0 0.0 0.0 0.00 0.02 0.01 68 1017.3
20260504000049 70 0 0.0 0.0 0.00 0.02 0.01 63 1017.3
20260503234546 71 0 0.0 0.0 0.00 0.02 0.01 57 1017.4
20260503233043 72 0 0.0 0.0 0.00 0.02 0.01 53 1017.5
20260503231545 73 0 0.0 0.0 0.00 0.02 0.01 51 1017.5
20260503230045 74 196 0.0 1.0 0.00 0.02 0.01 45 1017.4
20260503224548 74 0 0.0 1.0 0.00 0.03 0.01 41 1017.4
20260503223053 74 0 0.0 1.0 0.00 0.03 0.01 42 1017.4
20260503221548 75 0 0.0 1.0 0.00 0.03 0.01 41 1017.6
20260503220052 75 0 0.0 1.0 0.00 0.03 0.01 41 1017.7
20260503214546 75 343 0.0 2.0 0.00 0.04 0.01 42 1018.1
20260503213050 77 51 0.0 2.0 0.00 0.04 0.01 38 1018.4
20260503211544 77 0 0.0 1.0 0.00 0.04 0.01 38 1018.6
20260503210042 76 0 0.0 2.0 0.00 0.04 0.01 39 1018.8
20260503204538 77 303 0.0 3.0 0.00 0.05 0.01 38 1018.9
20260503203052 78 0 0.0 2.0 0.00 0.05 0.01 39 1019.1
20260503201537 78 158 0.0 3.0 0.00 0.05 0.01 35 1019.2
20260503200037 79 283 0.0 4.0 0.00 0.05 0.01 37 1019.6
20260503194539 77 0 0.0 3.0 0.00 0.06 0.01 40 1019.9
20260503193048 77 128 0.0 2.0 0.00 0.06 0.01 40 1020.2
20260503191538 76 0 1.0 2.0 0.00 0.06 0.01 40 1020.4
20260503190037 76 311 0.0 4.0 0.00 0.06 0.01 39 1020.6
20260503184555 76 167 0.0 2.0 0.00 0.09 0.01 43 1020.7
20260503183056 76 315 0.0 2.0 0.00 0.09 0.01 40 1020.8
20260503181541 75 108 1.0 4.0 0.00 0.09 0.01 37 1020.9
20260503180047 74 309 1.0 3.0 0.00 0.09 0.01 38 1021.1
20260503174546 74 307 2.0 3.0 0.00 0.12 0.01 38 1021.2
20260503173056 75 163 1.0 3.0 0.00 0.12 0.01 38 1021.4
20260503171536 74 296 0.0 3.0 0.00 0.12 0.01 40 1021.6